This demonstration page uses our WeatherBlox Daily Observations layout. Learn more.

Left ArrowRight Arrow

Hourly Observations for November 15, 2022

Temp ( °F °C ) Dew Point ( °F °C ) Humidity (%) Winds ( mph kmh ) Pressure ( in mb ) Visibility ( mi km ) Precip ( " mm )
12:53 am 00:53 Clear 30 -1.1 19 -7.2 63 63 Calm 30.23 1024 10 16 0.00 0.00
1:53 am 01:53 Clear 27 -2.8 18 -7.8 68 68 NNE 6 9 30.24 1024 10 16 0.00 0.00
2:53 am 02:53 Clear 27 -2.8 18 -7.8 68 68 NE 3 6 30.25 1024 10 16 0.00 0.00
3:53 am 03:53 Clear 24 -4.4 16 -8.9 71 71 N 6 9 30.27 1025 10 16 0.00 0.00
4:53 am 04:53 Clear 23 -5 16 -8.9 74 74 N 8 13 30.27 1025 10 16 0.00 0.00
5:53 am 05:53 Clear 23 -5 16 -8.9 74 74 N 5 7 30.31 1026 10 16 0.00 0.00
6:53 am 06:53 Clear 22 -5.6 16 -8.9 77 77 NNW 5 7 30.33 1027 10 16 0.00 0.00
7:53 am 07:53 Sunny 24 -4.4 17 -8.3 74 74 N 6 9 30.34 1028 10 16 0.00 0.00
8:53 am 08:53 Sunny 32 0 20 -6.7 61 61 NNE 3 6 30.37 1028 10 16 0.00 0.00
9:53 am 09:53 Sunny 37 2.8 21 -6.1 52 52 S 6 9 30.38 1029 10 16 0.00 0.00
10:53 am 10:53 Sunny 41 5 21 -6.1 44 44 ENE 6 9 30.36 1028 10 16 0.00 0.00
11:53 am 11:53 Sunny 45 7.2 20 -6.7 36 36 SE 6 9 30.34 1027 10 16 0.00 0.00
12:53 pm 12:53 undefined 46 7.8 18 -7.8 32 32 Calm 30.30 1026 10 16 0.00 0.00
1:53 pm 13:53 Sunny 50 10 18 -7.8 28 28 NNE 6 9 30.28 1025 10 16 0.00 0.00
2:53 pm 14:53 Mostly Cloudy 51 10.6 16 -8.9 24 24 E 5 7 30.26 1025 10 16 0.00 0.00
3:53 pm 15:53 Cloudy 50 10 16 -8.9 25 25 E 6 9 30.27 1025 10 16 0.00 0.00
4:53 pm 16:53 Cloudy 50 10 17 -8.3 27 27 ESE 12 19 30.27 1025 10 16 0.00 0.00
5:53 pm 17:53 Mostly Sunny 48 8.9 17 -8.3 29 29 ESE 13 20 30.28 1025 10 16 0.00 0.00
6:53 pm 18:53 Mostly Clear 46 7.8 18 -7.8 32 32 E 7 11 30.31 1026 10 16 0.00 0.00
7:53 pm 19:53 Mostly Cloudy 45 7.2 17 -8.3 32 32 E 7 11 30.33 1027 10 16 0.00 0.00
8:53 pm 20:53 Partly Cloudy 45 7.2 17 -8.3 32 32 E 9 15 30.32 1027 10 16 0.00 0.00
9:53 pm 21:53 Cloudy 44 6.7 18 -7.8 35 35 E 8 13 30.33 1027 10 16 0.00 0.00
10:53 pm 22:53 Mostly Cloudy 41 5 18 -7.8 39 39 E 7 11 30.33 1027 10 16 0.00 0.00
11:53 pm 23:53 Cloudy 40 4.4 18 -7.8 41 41 E 7 11 30.34 1027 10 16 0.00 0.00

Powered by AerisWeather